Location: Amsterdam
(30.7274°N, 84.4357°W)
Time: 15:33:10
(UTC+00:00)

Vanguard 1 Rocket - Pass Details

Date: 21 February 2026
Orbit: 653 x 4214 km, 34.3° (Epoch: 6 March)

Event Time Altitude Azimuth Distance (km) Brightness Sun altitude
Rises 02:05:31 0° 285° (WNW) 7,153 13.0 -34.1°
Reaches altitude 10° 02:10:38 10° 277° (W) 6,543 12.5 -35.2°
Maximum altitude 02:29:28 33° 223° (SW) 5,645 11.5 -39.2°
Drops below altitude 10° 02:50:06 10° 168° (SSE) 6,994 11.6 -43.5°
Enters shadow 02:54:36 - 161° (SSE) 7,487 11.8 -44.4°
